Regional Weather Roundup
Issued by NWS

Home | Current Version | Previous Version | Graphics & Text | Print | Product List | Glossary On
Versions: 1 2 3 4 5 6 7 8 9 10 11 12 13 14 15 16 17 18 19 20 21 22 23 24 25 26 27 28 29 30 31 32 33 34 35 36 37 38 39 40 41 42 43 44 45 46 47 48 49 50
156
ASUS43 KLOT 232303
RWRIL

ILLINOIS REGIONAL WEATHER ROUNDUP
NATIONAL WEATHER SERVICE CHICAGO/ROMEOVILLE IL
500 PM CST MON JAN 23 2017

NOTE: "FAIR" INDICATES FEW OR NO CLOUDS BELOW 12,000 FEET WITH NO
SIGNIFICANT WEATHER AND/OR OBSTRUCTIONS TO VISIBILITY.

* THESE STATIONS ARE NOT UNDER NWS QUALITY CONTROL. THEY ALSO MAY NOT
  REPORT WEATHER SUCH AS PRECIPITATION OR FOG.

ILZ001-002-007-009-015-016-024-240000-
NORTHWEST ILLINOIS

CITY           SKY/WX    TMP DP  RH WIND       PRES   REMARKS
MOLINE         CLOUDY    39  33  79 NW10      29.82R WCI  32
STERLING*      CLOUDY    39  35  86 NW7       29.81R WCI  34
SAVANNA*       CLOUDY    38  33  85 NW5       29.82R WCI  34
$$

ILZ003-004-008-010-011-017-018-240000-
NORTH CENTRAL ILLINOIS

CITY           SKY/WX    TMP DP  RH WIND       PRES   REMARKS
ROCKFORD       CLOUDY    41  35  79 NW7       29.80S
FREEPORT*      CLOUDY    37  34  87 W8        29.81R WCI  31
ROCHELLE*      CLOUDY    39  36  88 NW6       29.79S WCI  35
DE KALB*       CLOUDY    39  36  89 CALM      29.78S
PERU*          CLOUDY    39  34  82 NW10      29.80R WCI  32
$$

ILZ005-006-012>014-019>023-240000-
NORTHEAST ILLINOIS

CITY           SKY/WX    TMP DP  RH WIND       PRES   REMARKS
CHICAGO-OHARE  CLOUDY    41  35  79 NW9       29.76R
CHICAGO-MIDWAY CLOUDY    42  34  73 NW8       29.76R
AURORA         CLOUDY    40  36  86 N5        29.78R
LANSING*       CLOUDY    40  37  87 NW3       29.76R
JOLIET*        CLOUDY    42  37  82 NW6       29.78R
WAUKEGAN       CLOUDY    41  36  82 NW6       29.75S
DUPAGE AIRPORT CLOUDY    40  33  76 NW10      29.77R
KANKAKEE*      CLOUDY    40  36  84 CALM      29.77R
WHEELING       CLOUDY    42  35  76 NW9       29.77R
MORRIS*        CLOUDY    40  36  84 CALM      29.77S
ROMEOVILLE*    CLOUDY    40  38  91 NW6       29.77R
NORTHERLY ISL    N/A     40  34  79 N7          N/A
$$

LMZ740>746-240000-
SOUTHERN LAKE MICHIGAN

STATION/POSITION SKY/WX   TEMP    WIND        PRES    VSBY  WAVE
                          AIR SEA DIR/SP/G                  HT/PER
                          (F)     (DEG/KT/KT) (MB)    (MI)  (FT/S)
HARRISON CRIB              38     350/ 11/ 12   N/A
BURNHAM HARBOR             40     350/  7/ 10   N/A
CALUMET HARBOR             37     330/  5/  8 1007.1R
BURNS HARBOR               36     320/  5/  8 1008.5R
MICHIGAN CITY              36     320/ 13/ 14   N/A
$$

ILZ025>027-034>036-040-047-049-050-058-095>099-240000-
WEST-CENTRAL ILLINOIS

CITY           SKY/WX    TMP DP  RH WIND       PRES   REMARKS
QUINCY         CLOUDY    37  32  82 W6        29.84S WCI  32
GALESBURG*     CLOUDY    37  35  91 W8        29.81S WCI  31
MACOMB*        CLOUDY    38  35  89 NW8       29.85R WCI  32
JACKSONVILLE*  CLOUDY    39  33  79 W12       29.84R WCI  32
PITTSFIELD*    CLOUDY    39  33  78 W8        29.85R WCI  34
$$

ILZ028>032-037-038-041>044-048-051>054-059>061-240000-
CENTRAL ILLINOIS

CITY           SKY/WX    TMP DP  RH WIND       PRES   REMARKS
PONTIAC        CLOUDY    40  39  95 NW6       29.79S
BLOOMINGTON    CLOUDY    39  34  82 N13       29.79R WCI  31
DECATUR        CLOUDY    42  36  79 NW10      29.79R
PEORIA         CLOUDY    41  35  79 NW5       29.81R
LACON*         CLOUDY    39  37  91 NW7       29.80R WCI  34
LINCOLN*       CLOUDY    42  37  82 NW3       29.80R
SPRINGFIELD    CLOUDY    42  34  73 NW13      29.82R
TAYLORVILLE    CLOUDY    40  35  81 NW10      29.81R
$$

ILZ033-039-045-046-055>057-062-063-240000-
EAST-CENTRAL ILLINOIS

CITY           SKY/WX    TMP DP  RH WIND       PRES   REMARKS
CHAMPAIGN      CLOUDY    39  34  82 N13       29.77S WCI  31
RANTOUL*       CLOUDY    41  37  87 NW12      29.77R
MATTOON        CLOUDY    39  36  89 NW15      29.77R WCI  31
PARIS*         CLOUDY    39  37  91 NW13      29.77R WCI  31
$$

ILZ079-100>102-240000-
SOUTHWEST ILLINOIS

CITY           SKY/WX    TMP DP  RH WIND       PRES   REMARKS
ALTON          CLOUDY    41  34  75 NW14      29.84R
BELLEVILLE     CLOUDY    42  35  77 NW12      29.83R
CAHOKIA*       CLOUDY    42  33  70 NW10      29.85R
SPARTA*        CLOUDY    41  34  77 NW7       29.84R
$$

ILZ064>066-069>071-074>076-080>082-084>086-088>090-092>094-240000-
SOUTH-CENTRAL ILLINOIS

CITY           SKY/WX    TMP DP  RH WIND       PRES   REMARKS
CARBONDALE     CLOUDY    42  36  79 NW8       29.82R
CAIRO*         CLOUDY    43  36  74 NW13      29.83R
EFFINGHAM*     CLOUDY    42  38  84 NW13      29.80S
MARION         CLOUDY    43  36  75 NW12      29.82R
MT. VERNON     CLOUDY    42  36  79 VRB6      29.81R
CENTRALIA*     CLOUDY    42  37  82 NW9       29.80R
SALEM*         CLOUDY    43  36  77 NW12      29.80S
METROPOLIS*    CLOUDY    44  36  74 NW7       29.81S
$$

ILZ067-068-072-073-078-083-087-091-240000-
SOUTHEAST ILLINOIS

CITY           SKY/WX    TMP DP  RH WIND       PRES   REMARKS
LAWRENCEVILLE  CLOUDY    41  37  86 NW17      29.77R
FLORA*         CLOUDY    43  37  80 NW9       29.80S
FAIRFIELD*     CLOUDY    42  36  81 NW3       29.79R
HARRISBURG*    CLOUDY    42  37  80 N8        29.81S
ROBINSON*      CLOUDY    40  36  87 N12       29.78R
CARMI*         CLOUDY    41  36  82 NW14      29.79S
$$

ABBREVIATIONS USED IN REMARKS
   TC - TEMPERATURE IN CELSIUS
  WCI - WIND CHILL INDEX
   HX - HEAT INDEX
  VSB - VISIBILITY
$$





USA.gov is the U.S. government's official web portal to all federal, state and local government web resources and services.